Location: Artiguedieu
(43.5000°N, 0.5454°E)
Time: 19:48:54
(UTC+00:00)

Transit 2A - Pass Details

Date: 30 July 2021
Orbit: 594 x 964 km, 66.7° (Epoch: 28 September)

Event Time Altitude Azimuth Distance (km) Brightness Sun altitude
Rises 06:19:02 0° 199° (SSW) 2,819 8.6 15.2°
Reaches altitude 10° 06:21:14 10° 195° (SSW) 1,931 7.9 15.6°
Maximum altitude 06:25:28 58° 117° (ESE) 723 6.6 16.3°
Drops below altitude 10° 06:29:58 10° 38° (NE) 2,057 9.1 17.1°
Sets 06:32:23 0° 35° (NE) 3,023 9.8 17.6°
